(80837) = 2000 DV7

Discovered at Kitt Peak on 2000-02-28 by Spacewatch.

Orbit

Orbit type: Main Belt

Note: WebGL enabled browser required.

epoch2023-09-13.0
epoch JD2460200.5
perihelion date2023-09-09.89658
perihelion JD2460197.39658
argument of perihelion (°)73.11259
ascending node (°)170.82752
inclination (°)0.82232
eccentricity0.1878365
perihelion distance (AU)1.9729248
Tisserand w.r.t. Jupiter3.5
ΔV w.r.t. Earth (km/sec)8.8
semimajor axis (AU)2.4292214
mean anomaly (°)0.80788
mean daily motion (°/day)0.26031740
aphelion distance (AU)2.886
period (years)3.79
P-vector [x]-0.43929474
P-vector [y]-0.82957985
P-vector [z]-0.34469900
Q-vector [x]0.89834008
Q-vector [y]-0.40469070
Q-vector [z]-0.17091089
absolute magnitude17.01
phase slope0.15
uncertainty0
referenceMPEC 2023-O115
observations used499
oppositions16
arc length (days)8973
first opposition used1998
last opposition used2023
residual rms (arc-secs)0.74
perturbers coarse indicatorM-v
perturbers precise indicator003Ek
first observation date used1998-11-14.0
last observation date used2023-06-09.0
computer nameMPCLINUX
JD of orbit computation2456639.624277
perihelion JD uncertainty (days)8.2197E-05
argument of perihelion uncertainty (°)3.2735E-04
ascending node uncertainty (°)3.2671E-04
inclination uncertainty (°)8.2712E-06
eccentricity uncertainty 5.4740E-08
perihelion distance uncertainty (AU)1.2858E-07
Minimum Orbit Intersection Distances (in AU)
for orbit epoch: 2460200.5, reference: E2023-OB5
Mercury1.50927
Venus1.24773
Earth0.95919
Mars0.42368
Jupiter2.12734
Saturn6.19187
Uranus16.0185
Neptune26.9977

Observations

510 total observations over interval: 1998 11 14.22922 – 2023 06 09.212592
These data are available for download (format description).

Date (UT) J2000 RA J2000 Dec Magn Location Ref
1998 11 14.22922 03 06 43.03 +16 23 51.5 21.0 V 691 – Steward Observatory, Kitt Peak-Spacewatch MPS 43129
1998 11 14.25091 03 06 41.71 +16 23 46.4 20.7 V 691 – Steward Observatory, Kitt Peak-Spacewatch MPS 43129
1998 11 14.27342 03 06 40.33 +16 23 40.3 20.7 V 691 – Steward Observatory, Kitt Peak-Spacewatch MPS 43129
2000 02 05.37865 09 29 31.61 +14 03 06.9 19.3 V 691 – Steward Observatory, Kitt Peak-Spacewatch MPS 37513
2000 02 05.40057 09 29 30.22 +14 03 13.4 19.4 V 691 – Steward Observatory, Kitt Peak-Spacewatch MPS 37513
2000 02 05.42289 09 29 28.86 +14 03 20.1 19.7 V 691 – Steward Observatory, Kitt Peak-Spacewatch MPS 37513
2000 02 15.31959 09 19 22.77 +14 54 06.2 19.8 V 691 – Steward Observatory, Kitt Peak-Spacewatch MPS 27840
2000 02 15.32783 09 19 22.26 +14 54 08.7 19.9 V 691 – Steward Observatory, Kitt Peak-Spacewatch MPS 27840
2000 02 15.33577 09 19 21.76 +14 54 11.2 19.9 V 691 – Steward Observatory, Kitt Peak-Spacewatch MPS 27840
2000 02 28.12043 09 07 14.98 +15 53 50.5 20.3 V 691 – Steward Observatory, Kitt Peak-Spacewatch MPS 11135
2000 02 28.14277 09 07 13.85 +15 53 56.4 20.1 V 691 – Steward Observatory, Kitt Peak-Spacewatch MPS 11135
2000 02 28.16507 09 07 12.65 +15 54 02.2 20.1 V 691 – Steward Observatory, Kitt Peak-Spacewatch MPS 11135
2000 03 01.11513 09 05 36.10 +16 01 54.0 20.3 V 691 – Steward Observatory, Kitt Peak-Spacewatch MPS 11135
2000 03 01.13698 09 05 35.03 +16 01 59.6 20.2 V 691 – Steward Observatory, Kitt Peak-Spacewatch MPS 11135
2000 03 01.15884 09 05 33.90 +16 02 05.1 20.5 V 691 – Steward Observatory, Kitt Peak-Spacewatch MPS 11135
2001 05 24.31918 22 01 28.17 -11 17 27.8 20.3 R 807 – Cerro Tololo Observatory, La Serena MPS 43129
2001 05 24.37121 22 01 31.53 -11 17 09.0   807 – Cerro Tololo Observatory, La Serena MPS 43129
2001 08 16.28511 22 02 03.85 -11 23 28.4 19.8   704 – Lincoln Laboratory ETS, New Mexico MPS 37513
2001 08 16.29747 22 02 03.15 -11 23 33.4 19.9   704 – Lincoln Laboratory ETS, New Mexico MPS 37513
2001 08 16.30972 22 02 02.36 -11 23 37.4 19.6   704 – Lincoln Laboratory ETS, New Mexico MPS 37513
2001 08 16.32195 22 02 01.66 -11 23 40.2 19.8   704 – Lincoln Laboratory ETS, New Mexico MPS 37513
2001 09 12.23737 21 39 53.74 -13 32 52.4 19.3 R 695 – Kitt Peak MPS 37513
2001 09 12.28443 21 39 51.99 -13 33 02.0   695 – Kitt Peak MPS 37513
2001 09 19.13283 21 36 32.90 -13 53 08.5 19.8   704 – Lincoln Laboratory ETS, New Mexico MPS 37513
2001 09 19.14774 21 36 32.58 -13 53 10.3 20.4   704 – Lincoln Laboratory ETS, New Mexico MPS 37513
2001 09 19.16201 21 36 32.13 -13 53 12.5 19.8   704 – Lincoln Laboratory ETS, New Mexico MPS 37513
2001 09 20.10965 21 36 10.93 -13 55 26.6 21.5 V 691 – Steward Observatory, Kitt Peak-Spacewatch MPS 37513
2001 09 20.13124 21 36 10.46 -13 55 29.4 20.6 V 691 – Steward Observatory, Kitt Peak-Spacewatch MPS 37513
2001 09 20.15290 21 36 09.91 -13 55 33.2 21.3 V 691 – Steward Observatory, Kitt Peak-Spacewatch MPS 37513
2004 02 14.28019 11 38 15.97 +02 07 02.2 20.8 R G98 – Calvin-Rehoboth Observatory, Rehoboth MPS 112488
2004 02 14.30312 11 38 15.27 +02 07 07.4 21.1 R G98 – Calvin-Rehoboth Observatory, Rehoboth MPS 112488
2004 02 14.32473 11 38 14.54 +02 07 12.4 20.3 R G98 – Calvin-Rehoboth Observatory, Rehoboth MPS 112488
2004 02 14.34575 11 38 13.87 +02 07 16.3 20.5 R G98 – Calvin-Rehoboth Observatory, Rehoboth MPS 112488
2004 02 14.36694 11 38 13.15 +02 07 21.5 20.3 R G98 – Calvin-Rehoboth Observatory, Rehoboth MPS 112488
2004 02 14.38806 11 38 12.47 +02 07 26.4 20.3 R G98 – Calvin-Rehoboth Observatory, Rehoboth MPS 112488
2004 02 14.40933 11 38 11.70 +02 07 31.5 20.7 R G98 – Calvin-Rehoboth Observatory, Rehoboth MPS 112488
2004 02 14.43035 11 38 11.05 +02 07 35.2 20.1 R G98 – Calvin-Rehoboth Observatory, Rehoboth MPS 112488
2004 02 14.45169 11 38 10.40 +02 07 40.6 20.5 R G98 – Calvin-Rehoboth Observatory, Rehoboth MPS 112488
2004 02 14.47273 11 38 09.63 +02 07 45.7 21.4 R G98 – Calvin-Rehoboth Observatory, Rehoboth MPS 112488
2004 02 16.28785 11 37 11.14 +02 14 46.3 20.6 R G98 – Calvin-Rehoboth Observatory, Rehoboth MPS 112488
2004 02 16.33022 11 37 09.62 +02 14 56.3 20.5 R G98 – Calvin-Rehoboth Observatory, Rehoboth MPS 112488
2004 02 16.37270 11 37 08.10 +02 15 06.8 20.1 R G98 – Calvin-Rehoboth Observatory, Rehoboth MPS 112488
2004 02 16.41499 11 37 06.56 +02 15 17.1 19.7 R G98 – Calvin-Rehoboth Observatory, Rehoboth MPS 112488
2004 02 16.45748 11 37 05.01 +02 15 26.9 20.2 R G98 – Calvin-Rehoboth Observatory, Rehoboth MPS 112488
2004 02 17.26002 11 36 37.50 +02 18 46.6 20.8 R G98 – Calvin-Rehoboth Observatory, Rehoboth MPS 112488
2004 02 17.28734 11 36 36.46 +02 18 54.0 20.3 R G98 – Calvin-Rehoboth Observatory, Rehoboth MPS 112488
2004 02 17.31635 11 36 35.36 +02 19 00.8 20.3 R G98 – Calvin-Rehoboth Observatory, Rehoboth MPS 112488
2004 02 17.34384 11 36 34.31 +02 19 07.9 20.1 R G98 – Calvin-Rehoboth Observatory, Rehoboth MPS 112488
2004 02 17.37145 11 36 33.28 +02 19 14.2 20.2 R G98 – Calvin-Rehoboth Observatory, Rehoboth MPS 112488
2004 02 17.39881 11 36 32.23 +02 19 22.0 19.9 R G98 – Calvin-Rehoboth Observatory, Rehoboth MPS 112488
2004 02 17.42624 11 36 31.17 +02 19 28.7 19.9 R G98 – Calvin-Rehoboth Observatory, Rehoboth MPS 112488
2004 02 17.45409 11 36 30.13 +02 19 35.9 19.8 R G98 – Calvin-Rehoboth Observatory, Rehoboth MPS 112488
2004 02 17.48213 11 36 29.10 +02 19 42.9 20.2 R G98 – Calvin-Rehoboth Observatory, Rehoboth MPS 112488
2004 02 17.50977 11 36 28.07 +02 19 50.1 21.7 R G98 – Calvin-Rehoboth Observatory, Rehoboth MPS 112488
2004 02 26.32936 11 30 17.52 +03 03 23.7 19.8   704 – Lincoln Laboratory ETS, New Mexico MPS 99965
2004 02 26.34042 11 30 16.95 +03 03 26.8 20.2   704 – Lincoln Laboratory ETS, New Mexico MPS 99965
2004 02 26.35149 11 30 16.40 +03 03 30.7 20.0   704 – Lincoln Laboratory ETS, New Mexico MPS 99965
2004 02 26.36261 11 30 15.77 +03 03 34.9 19.8   704 – Lincoln Laboratory ETS, New Mexico MPS 99965
2004 02 26.37367 11 30 15.27 +03 03 38.3 19.9   704 – Lincoln Laboratory ETS, New Mexico MPS 99965
2004 03 11.26469 11 17 58.15 +04 28 55.0 18.9   644 – Palomar Mountain/NEAT MPS 101030
2004 03 11.28711 11 17 56.85 +04 29 03.6 19.2   644 – Palomar Mountain/NEAT MPS 101030
2004 03 11.31324 11 17 55.31 +04 29 13.9 18.9   644 – Palomar Mountain/NEAT MPS 101030
2004 03 14.29217 11 15 08.12 +04 48 25.4 19.9 V 691 – Steward Observatory, Kitt Peak-Spacewatch MPS 101030
2004 03 14.39055 11 15 02.37 +04 49 03.2 19.8 V 691 – Steward Observatory, Kitt Peak-Spacewatch MPS 101030
2004 03 14.41964 11 15 00.69 +04 49 14.4 19.9 V 691 – Steward Observatory, Kitt Peak-Spacewatch MPS 101030
2004 03 15.30853 11 14 11.17 +04 54 56.4 19.7   704 – Lincoln Laboratory ETS, New Mexico MPS 101030
2004 03 15.31926 11 14 10.68 +04 55 00.6 19.8   704 – Lincoln Laboratory ETS, New Mexico MPS 101030
2004 03 15.33007 11 14 09.95 +04 55 03.6 19.8   704 – Lincoln Laboratory ETS, New Mexico MPS 101030
2004 03 15.34081 11 14 09.25 +04 55 07.9 20.4   704 – Lincoln Laboratory ETS, New Mexico MPS 101030
2004 03 15.35182 11 14 08.74 +04 55 12.4 19.6   704 – Lincoln Laboratory ETS, New Mexico MPS 101030
2004 03 18.28808 11 11 26.76 +05 13 48.3 19.9   704 – Lincoln Laboratory ETS, New Mexico MPS 101030
2004 03 18.29941 11 11 26.04 +05 13 50.3 19.9   704 – Lincoln Laboratory ETS, New Mexico MPS 101030
2004 03 18.31124 11 11 25.34 +05 13 55.2 20.1   704 – Lincoln Laboratory ETS, New Mexico MPS 101030
2004 03 18.32279 11 11 24.70 +05 13 59.0 19.9   704 – Lincoln Laboratory ETS, New Mexico MPS 101030
2004 03 18.33442 11 11 24.04 +05 14 03.3 20.2   704 – Lincoln Laboratory ETS, New Mexico MPS 101030
2004 03 20.26332 11 09 40.04 +05 25 59.6 19.6 R 699 – Lowell Observatory-LONEOS MPS 103799
2004 03 20.28859 11 09 38.51 +05 26 09.1   699 – Lowell Observatory-LONEOS MPS 103799
2004 03 20.31394 11 09 37.10 +05 26 18.6   699 – Lowell Observatory-LONEOS MPS 103799
2004 03 20.33935 11 09 35.76 +05 26 26.5   699 – Lowell Observatory-LONEOS MPS 103799
2004 03 27.28169 11 03 46.56 +06 06 26.4 19.0   704 – Lincoln Laboratory ETS, New Mexico MPS 102919
2004 03 27.29217 11 03 46.05 +06 06 30.3 20.1   704 – Lincoln Laboratory ETS, New Mexico MPS 102919
